Retour au catalogue

STARLINK-4214

ActifCommunicationsVLEO
NORAD 52877·PAYLOAD·🇺🇸 United States

Lancé Jun 17, 2022 depuis Cape Canaveral Space Force Station

Loading…

Prochains Passages (prochaines 24 heures)

TLE

FraisSource: CelesTrak SupGP

Époque: Sep 15, 2026, 01:35 UTC

1 52877C 22062AZ  26258.06645833 -.00023799  00000+0 -70309-3 0  2580
2 52877  53.1575 231.3192 0001221  94.9690 103.9650 15.34405394    14

Suivez STARLINK-4214 en temps réel avec AllMySat

Download on the App Store